sat.trackr.live / text

‹ back to catalog

STARLINK-35687

NORAD 66524 · 2025-265J

PAYLOAD ACTIVE UNKNOWN

§ Identity

Operator
Country
US
Launch date
2025-11-19
Launch site
AFETR
Launch vehicle
Mass (kg)
RCS (m²)

Purposes: comms

External: N2YO · Heavens-Above · Gunter

§ Orbital elements

Epoch: 2026-09-20T09:00:27.249696Z

Period
94.27 min
Inclination
43.0034°
Eccentricity
0.0001533
Mean motion
15.27578209 rev/d
Perigee alt
482.0 km
Apogee alt
484.1 km
Semi-major
6,861.2 km
B*
3.9309e-4
RAAN
258.8429°
Arg perigee
260.6977°
Mean anomaly
99.3701°
Rev number
4,688

§ Raw data

STARLINK-356871 66524U 25265J   26263.37531539  .00010570  00000+0  39309-3 0  99972 66524  43.0034 258.8429 0001533 260.6977  99.3701 15.27578209 46887

JSON: /api/v1/satellites/66524 · /tle

For live sub-satellite position, see the globe view (requires WebGL).

§ Visibility from observer

Set your observer location to see the next 7 days of passes ≥ 10°. The values pass through the URL so the page stays shareable.

No JS? Fill the form by hand. The geolocation button needs JavaScript.